User: anonymous   Login
Location: Oshawa
(43.9000°N, 78.8670°W)
Time: 14:50:23
(UTC-04:00)
Language:

PAYLOAD A - Orbit

View from above orbital plane
View from above orbital plane
View from above satellite
View from above satellite

Ground track
Ground track

The orbit data is extracted from the following two-line orbital elements,

1 27840U 03031A   17173.93753846 -.00000023 +00000-0 +59257-5 0  9991
2 27840 098.2049 171.1978 0099528 101.5761 259.6621 14.38883100734048
Epoch (UTC): 22 June 2017 22:30:03
Eccentricity: 0.0099528
inclination: 98.2049°
perigee height: 691 km
apogee height: 833 km
right ascension of ascending node: 171.1978°
argument of perigee: 101.5761°
revolutions per day: 14.38883100
mean anomaly at epoch: 259.6621°
orbit number at epoch: 73404

The dashed part of the orbit path shows where the satellite is in the earth's shadow,  

DLR